Probability
0 0 0 0 0 0 0 0 0 0 0 0 0 1 1 2 5 13 24 39 57 68 74 79 81 78 76 76 73 66 60 59 55 46 35 24 15 10 8 11 12 11 11 11
0 0 0 0 0 0 0 0 0 0 0 0 0 1 2 3 7 13 23 37 55 68 75 79 80 78 77 78 75 68 62 60 56 48 37 27 20 14 12 13 14 14 13 13
0 0 0 0 0 0 0 0 0 0 0 0 0 2 4 6 8 12 19 31 48 62 72 77 78 77 77 79 77 71 67 64 59 52 40 32 26 20 16 15 17 18 17 16
0 0 0 0 0 0 0 0 0 0 0 0 0 2 6 9 9 10 15 24 39 55 68 75 76 74 73 74 74 74 71 64 59 54 43 34 27 21 18 17 19 20 19 16
0 0 0 0 0 0 0 0 0 0 0 0 0 2 6 8 9 11 16 23 35 51 64 73 74 71 68 67 67 69 68 60 55 50 42 33 25 20 17 16 18 20 18 14
0 0 0 0 0 0 0 0 0 0 0 0 0 1 3 5 8 13 19 24 33 47 60 69 72 69 66 62 59 59 60 56 49 42 36 31 25 19 16 14 15 16 14 12
0 0 0 0 0 0 0 0 0 0 0 0 0 0 1 3 8 13 19 24 32 43 55 65 69 68 65 59 55 54 54 51 47 39 34 31 26 20 16 14 13 12 10 8
0 0 0 0 0 0 0 0 0 0 0 0 0 0 1 4 7 10 15 23 31 41 51 60 64 65 63 58 54 53 51 49 45 38 32 30 26 20 16 16 14 11 8 5
0 0 0 0 0 0 0 0 0 0 0 0 0 0 2 4 4 6 12 22 31 39 48 54 58 58 58 58 57 56 52 46 40 34 30 28 25 19 16 17 15 12 9 7
0 0 0 0 0 0 0 0 0 0 0 0 0 0 1 2 2 5 13 23 32 39 46 52 54 54 56 59 62 59 53 45 38 33 29 25 22 19 17 16 15 13 11 9
0 0 0 0 0 0 0 0 0 0 0 0 0 0 0 1 2 6 15 27 35 41 48 54 58 59 59 61 64 61 53 46 40 35 30 26 23 20 17 15 14 13 10 9
0 0 0 0 0 0 0 0 0 0 0 0 0 0 0 1 3 10 21 33 41 46 52 58 64 66 64 61 62 60 53 47 41 37 32 29 26 22 18 15 14 13 12 10
0 0 0 0 0 0 0 0 0 0 0 0 0 0 0 1 5 15 28 38 46 51 55 62 68 69 67 63 61 57 52 46 42 39 36 34 30 25 22 20 17 16 16 15
0 0 0 0 0 0 0 0 0 0 0 0 0 0 1 2 9 22 34 42 49 54 60 66 71 72 71 68 62 56 50 46 43 41 41 40 35 30 27 24 21 20 19 19
0 0 0 0 0 0 0 0 0 0 0 0 0 2 4 9 19 33 43 48 53 57 64 71 75 77 75 71 65 59 53 49 46 44 44 44 39 34 31 28 24 22 21 19
0 0 0 0 0 0 0 0 0 0 0 0 1 4 11 20 34 46 52 55 59 63 69 76 80 82 79 73 68 65 61 54 49 46 45 44 40 35 32 28 24 23 22 20
4 4 3 1 0 0 0 0 0 0 0 0 2 8 20 34 47 55 58 60 65 70 75 81 84 84 79 72 70 71 66 57 51 46 44 42 39 35 31 27 23 22 21 20
11 11 7 1 0 0 0 0 0 0 1 3 9 16 28 41 50 56 62 67 72 76 79 83 83 80 75 71 69 69 65 58 52 47 44 42 39 35 31 27 23 21 21 20
13 14 7 1 0 0 1 1 1 1 5 14 21 26 33 39 45 54 65 73 76 78 80 82 78 74 71 69 66 63 60 56 51 48 46 43 38 33 30 27 23 20 19 18
7 9 5 1 0 2 4 5 4 7 18 32 38 38 40 43 47 58 70 75 75 76 79 80 74 70 69 67 63 59 57 54 50 47 45 41 38 33 29 27 23 19 15 12
2 3 3 2 2 6 12 14 16 26 42 54 55 53 54 58 63 69 75 76 73 73 75 74 70 67 65 62 59 57 56 52 47 43 41 40 38 33 28 25 20 14 11 9
1 3 5 6 11 20 28 31 39 53 63 67 66 65 67 70 72 74 76 75 71 69 67 64 61 61 58 55 53 53 51 47 42 38 36 36 35 29 22 18 14 10 8 7
3 5 10 17 28 40 46 49 55 62 65 66 65 66 68 69 70 72 73 70 66 62 58 56 55 55 53 49 47 46 43 39 36 32 29 29 26 20 14 11 8 6 4 4
5 8 17 29 40 46 49 51 51 53 56 59 60 61 64 66 67 69 69 65 60 56 53 52 53 52 49 44 39 37 36 33 29 25 22 20 16 11 8 6 3 2 2 2
7 10 19 32 40 40 41 40 39 42 49 53 57 61 65 66 66 65 63 59 54 52 51 50 48 45 41 36 32 30 29 27 23 20 18 14 9 5 3 2 1 0 1 1
7 11 20 31 37 38 37 34 33 37 44 50 57 64 67 66 64 60 56 53 51 50 50 47 42 37 32 29 27 26 25 23 21 18 15 10 5 2 1 0 0 0 0 0
Wind_Speed
10 11 11 11 11 10 9 6 1 3 4 3 4 4 7 7 7 9 11 12 12 12 12 12 11 11 10 8 8 7 7 6 5 4 4 4 4 3 3 4 5 4 4 3
10 13 13 9 5 7 9 8 5 4 3 4 6 5 6 7 7 7 9 11 13 13 12 12 11 10 10 9 9 8 7 7 7 4 4 3 3 3 3 3 4 5 4 3
15 9 8 8 7 8 9 9 7 2 2 7 8 7 4 5 7 7 8 11 12 13 14 13 12 11 11 10 9 7 7 7 6 5 3 2 2 2 2 3 3 4 4 4
14 9 5 8 9 9 9 7 7 7 7 7 8 4 4 5 6 9 9 10 12 13 14 14 12 11 10 9 9 6 6 6 5 5 4 4 4 3 3 2 2 3 4 4
11 10 8 10 10 9 8 4 6 9 10 11 10 5 4 8 6 7 9 10 11 12 14 14 12 10 9 9 9 7 6 5 4 4 4 4 4 3 2 2 3 3 3 4
14 10 10 10 10 8 7 6 8 10 10 12 10 6 2 5 5 5 7 9 10 11 13 13 12 11 9 9 8 8 7 5 4 4 4 4 4 3 2 3 3 3 3 3
14 13 10 10 11 10 9 8 7 8 8 8 7 6 4 6 6 5 7 8 10 11 12 12 12 11 10 9 9 8 7 5 5 4 3 3 3 3 3 3 4 4 3 3
15 14 14 12 13 10 11 13 10 8 5 4 5 4 4 7 7 6 6 8 10 11 12 13 12 11 10 10 9 8 8 6 5 5 3 3 3 2 2 3 3 3 3 3
12 14 15 14 13 14 13 13 15 14 12 8 4 3 5 8 8 7 8 9 11 11 12 13 13 12 10 10 8 8 7 6 5 4 4 3 2 2 2 1 2 2 2 2
13 10 12 15 12 15 15 12 9 10 9 9 5 6 3 8 8 7 7 9 11 11 12 13 12 12 11 10 9 8 7 6 5 4 3 3 3 2 1 1 1 0 1 0
17 11 10 13 14 14 14 14 10 8 9 9 5 2 3 4 5 6 8 9 10 11 12 12 11 11 11 10 10 9 8 6 5 4 3 3 3 2 2 1 2 1 1 1
15 10 10 13 13 14 14 15 13 8 8 9 7 3 5 4 6 6 8 10 8 9 9 12 13 11 10 10 10 9 8 7 6 5 4 3 2 3 2 2 2 2 2 1
11 9 10 11 12 15 13 13 14 13 10 9 9 2 5 4 4 7 9 10 9 9 9 11 11 11 9 9 8 9 8 7 7 6 5 4 3 3 3 3 3 2 2 2
6 9 12 13 10 13 14 15 14 14 10 10 9 5 7 6 5 7 9 9 8 9 9 10 10 10 9 8 8 8 7 7 7 6 5 5 4 3 3 3 3 3 2 2
7 11 13 16 15 12 13 15 16 15 14 12 9 6 5 6 7 7 9 9 8 9 9 10 10 9 9 8 7 7 7 6 6 6 5 4 4 4 4 4 3 3 3 3
8 9 12 15 17 16 13 13 14 15 14 14 11 6 2 4 8 7 7 9 8 8 9 9 10 10 9 9 8 7 7 7 6 5 5 5 5 4 4 4 4 4 4 3
10 7 10 12 15 16 15 12 12 12 12 11 11 6 3 5 7 6 5 6 8 8 8 8 8 9 8 7 7 8 8 7 6 5 5 6 5 5 4 4 4 4 4 3
7 7 8 11 13 16 11 11 12 12 11 10 5 1 3 6 7 6 5 5 6 7 7 7 7 8 9 8 7 7 8 7 6 6 5 6 5 5 5 4 4 4 4 4
8 6 8 10 13 13 10 9 10 10 7 4 2 2 4 6 8 6 6 5 6 7 7 7 7 7 7 8 8 8 8 7 7 6 5 5 5 5 5 5 5 4 4 5
11 7 9 10 11 10 6 6 5 6 4 3 1 2 3 3 4 4 6 7 7 8 8 8 8 8 7 7 8 8 8 7 6 6 5 5 5 6 6 6 5 4 5 5
14 12 13 13 11 6 5 5 4 6 2 5 5 3 4 4 5 7 9 9 8 9 10 9 8 8 6 6 7 8 8 7 6 6 6 6 6 6 6 6 5 5 5 5
13 12 13 12 12 5 5 2 3 5 6 7 6 7 8 9 9 9 9 9 9 9 9 9 8 8 7 6 7 8 8 7 7 7 7 7 6 6 6 5 5 5 5 5
9 6 5 4 2 6 8 8 6 6 6 6 6 7 7 7 8 9 9 8 9 9 8 7 8 8 7 7 7 8 7 7 8 8 7 7 8 7 5 5 4 4 3 3
5 2 2 2 5 6 7 7 5 6 6 5 5 6 6 7 8 8 8 7 7 7 7 6 8 8 7 7 7 7 7 8 8 7 7 7 7 7 7 5 5 5 4 3
2 4 5 3 4 4 5 4 4 5 5 5 6 6 6 7 8 8 7 7 7 7 6 6 7 7 7 7 7 7 7 7 8 7 7 7 8 8 8 8 7 7 7 6
2 2 2 1 1 2 4 4 4 4 5 5 5 6 7 7 8 8 7 7 7 7 6 6 7 7 7 7 7 6 6 7 7 6 6 6 6 6 7 7 8 14 11 12
Wind_Direction
218 233 239 240 240 273 299 314 331 124 127 259 239 180 162 163 174 161 161 157 160 164 160 153 154 156 157 158 162 171 179 172 173 178 186 194 194 192 195 191 179 191 210 206
220 231 245 263 284 284 282 280 258 172 136 265 266 235 178 168 168 165 162 157 159 159 156 154 157 161 164 164 167 175 182 178 184 185 184 190 190 202 197 199 178 191 198 206
232 230 222 245 247 250 260 269 292 307 193 239 252 244 200 168 160 158 164 161 163 163 159 160 167 170 169 167 174 178 177 177 186 181 181 185 174 213 202 194 180 198 200 213
237 238 223 235 241 241 251 264 296 295 277 273 252 245 169 170 190 176 171 167 166 162 159 163 169 169 169 167 168 166 166 171 178 178 188 190 194 205 204 195 183 194 203 213
230 226 226 232 239 240 266 316 284 276 274 277 274 261 172 168 202 179 165 163 161 157 158 162 164 161 161 160 160 159 157 161 168 179 189 202 212 212 203 189 183 197 206 215
247 225 222 233 239 239 258 270 265 264 265 261 261 268 162 163 178 161 158 150 152 153 153 153 152 150 153 156 157 155 153 159 169 185 190 202 219 222 214 197 189 203 204 213
232 231 216 232 236 219 231 241 243 238 236 254 254 249 161 137 146 157 143 145 147 149 147 145 147 152 156 160 156 153 152 161 170 179 190 195 215 225 218 210 201 209 205 205
212 219 211 214 233 221 216 238 249 263 259 257 263 252 134 124 121 127 140 141 143 145 145 147 151 153 158 159 155 152 153 161 169 172 181 184 202 223 219 212 213 216 218 210
218 219 202 205 219 240 226 228 253 266 273 271 206 236 155 136 140 149 152 146 147 147 146 149 152 154 156 155 151 148 148 154 163 166 169 174 187 210 216 199 218 222 217 212
256 243 206 192 207 229 247 246 247 264 281 288 257 238 184 148 154 153 152 146 142 147 149 148 149 152 150 150 144 141 143 148 151 153 163 160 164 155 144 162 138 174 262 274
242 253 223 195 201 221 222 244 256 268 270 276 280 359 66 144 151 156 153 142 142 152 148 144 142 145 145 145 145 142 141 144 146 145 146 126 136 134 129 99 88 90 68 46
226 242 241 213 204 224 231 227 236 244 261 278 278 209 165 156 174 162 132 126 134 139 141 141 142 143 146 148 147 146 147 148 148 143 135 121 118 115 113 102 96 93 91 77
212 238 240 225 209 207 234 235 234 237 238 249 265 156 152 175 161 140 131 132 137 142 140 136 139 142 147 145 142 142 146 148 146 142 136 127 117 107 99 91 89 90 88 83
233 231 241 236 221 204 213 232 237 242 241 243 242 187 184 175 150 133 131 135 141 142 140 140 138 138 139 137 136 140 144 144 140 135 132 127 122 112 104 94 84 78 77 80
236 231 242 261 269 250 223 221 226 236 249 256 257 235 195 161 148 135 135 141 145 148 147 144 144 139 139 137 139 139 136 130 127 129 126 124 121 112 105 100 92 83 72 73
221 250 241 249 259 262 251 229 226 229 238 250 259 262 119 110 112 119 132 146 150 155 152 146 145 144 144 144 144 137 132 127 126 126 121 117 114 109 105 100 92 86 76 65
202 230 247 246 246 253 245 238 237 238 236 243 253 239 168 118 114 118 131 147 153 155 149 147 143 141 138 139 134 136 131 131 131 125 120 117 115 111 105 103 96 90 83 73
209 215 240 251 251 244 246 241 240 242 244 246 236 172 100 105 108 103 114 138 140 138 138 134 138 140 143 140 137 133 134 133 130 123 119 117 123 121 111 102 92 84 77 73
202 213 238 244 245 239 240 240 234 232 238 266 220 149 125 138 125 110 104 115 124 127 128 126 127 130 132 138 137 132 131 128 123 119 115 114 115 111 106 98 88 80 79 75
196 199 235 243 249 247 242 237 249 229 203 342 28 101 147 173 177 124 114 110 114 116 116 116 118 116 115 125 130 127 123 117 113 111 109 105 102 101 100 96 91 86 84 82
196 199 223 242 245 243 314 297 235 222 138 36 25 55 81 72 73 98 105 101 103 110 113 113 112 111 106 107 115 115 112 110 109 108 103 97 95 99 99 98 95 96 92 90
202 205 214 234 243 233 352 325 54 65 56 51 48 60 78 87 96 103 104 105 104 106 109 113 110 105 102 106 112 112 111 108 106 102 100 97 94 92 95 96 94 96 100 101
211 221 219 223 187 75 55 63 63 70 66 56 60 73 85 97 102 104 106 105 105 105 108 112 112 108 102 102 107 111 110 111 110 104 99 94 89 82 83 87 93 95 95 96
199 212 213 131 117 97 80 68 54 62 67 63 70 85 95 101 103 104 103 104 105 109 112 113 115 112 103 100 101 106 112 113 114 112 108 104 98 85 66 55 56 56 45 61
235 206 200 173 142 115 94 75 56 60 65 74 76 83 95 104 109 109 107 109 108 107 107 110 109 109 108 106 106 108 113 116 117 116 113 107 96 90 76 63 49 57 51 46
285 276 244 206 118 119 105 94 72 70 70 75 87 93 96 102 106 106 104 105 108 106 104 107 109 112 114 112 109 109 115 122 125 125 123 116 114 110 106 98 79 56 64 63